TimeEDT,TemperatureF,Dew PointF,Humidity,Sea Level PressureIn,VisibilityMPH,Wind Direction,Wind SpeedMPH,Gust SpeedMPH,PrecipitationIn,Events,Conditions,WindDirDegrees,DateUTC
12:53 AM,45.0,43.0,93,30.10,10.0,Calm,Calm,-,0.00,,Overcast,0,2012-10-08 04:53:00
1:30 AM,44.6,42.8,93,30.09,10.0,Calm,Calm,-,N/A,,Mostly Cloudy,0,2012-10-08 05:30:00
1:42 AM,44.6,42.8,93,30.09,10.0,Calm,Calm,-,N/A,,Scattered Clouds,0,2012-10-08 05:42:00
1:53 AM,43.0,41.0,93,30.10,5.0,Calm,Calm,-,N/A,,Partly Cloudy,0,2012-10-08 05:53:00
2:05 AM,42.8,39.2,87,30.09,2.5,Calm,Calm,-,N/A,,Clear,0,2012-10-08 06:05:00
2:13 AM,42.8,39.2,87,30.09,6.0,Calm,Calm,-,N/A,,Clear,0,2012-10-08 06:13:00
2:17 AM,42.8,39.2,87,30.09,1.5,Calm,Calm,-,N/A,,Clear,0,2012-10-08 06:17:00
2:26 AM,42.8,39.2,87,30.09,0.5,Calm,Calm,-,0.01,Fog,Fog,0,2012-10-08 06:26:00
2:33 AM,42.8,39.2,87,30.09,0.5,Calm,Calm,-,0.01,Fog,Fog,0,2012-10-08 06:33:00
2:38 AM,41.0,39.2,93,30.09,0.2,Calm,Calm,-,0.01,Fog,Fog,0,2012-10-08 06:38:00
2:53 AM,39.9,39.0,97,30.10,0.2,Calm,Calm,-,0.01,Fog,Fog,0,2012-10-08 06:53:00
3:10 AM,41.0,39.2,93,30.09,0.2,Calm,Calm,-,N/A,Fog,Fog,0,2012-10-08 07:10:00
3:43 AM,39.2,37.4,93,30.10,0.5,Calm,Calm,-,N/A,Fog,Fog,0,2012-10-08 07:43:00
3:53 AM,41.0,39.0,93,30.12,1.5,NNW,4.6,-,N/A,,Mostly Cloudy,340,2012-10-08 07:53:00
3:56 AM,41.0,39.2,93,30.11,5.0,Variable,3.5,-,N/A,,Mostly Cloudy,0,2012-10-08 07:56:00
4:03 AM,39.2,37.4,93,30.11,10.0,Calm,Calm,-,N/A,,Scattered Clouds,0,2012-10-08 08:03:00
4:53 AM,39.9,37.9,93,30.13,10.0,Calm,Calm,-,N/A,,Clear,0,2012-10-08 08:53:00
5:43 AM,39.2,37.4,93,30.12,1.8,Calm,Calm,-,N/A,,Clear,0,2012-10-08 09:43:00
5:47 AM,37.4,37.4,100,30.12,1.0,Calm,Calm,-,N/A,,Mist,0,2012-10-08 09:47:00
5:53 AM,37.0,35.1,93,30.14,0.8,Calm,Calm,-,N/A,,Mist,0,2012-10-08 09:53:00
5:56 AM,37.4,35.6,93,30.12,1.5,Calm,Calm,-,N/A,,Partly Cloudy,0,2012-10-08 09:56:00
5:59 AM,37.4,35.6,93,30.12,3.0,Calm,Calm,-,N/A,,Partly Cloudy,0,2012-10-08 09:59:00
6:24 AM,37.4,35.6,93,30.14,1.8,Calm,Calm,-,N/A,,Clear,0,2012-10-08 10:24:00
6:32 AM,37.4,35.6,93,30.14,2.0,Calm,Calm,-,N/A,,Partly Cloudy,0,2012-10-08 10:32:00
6:51 AM,35.6,33.8,93,30.16,1.5,SW,3.5,-,N/A,,Scattered Clouds,220,2012-10-08 10:51:00
6:53 AM,36.0,34.0,93,30.18,1.2,SW,3.5,-,N/A,,Mostly Cloudy,230,2012-10-08 10:53:00
6:57 AM,35.6,35.6,100,30.16,0.2,Calm,Calm,-,N/A,Fog,Fog,0,2012-10-08 10:57:00
7:31 AM,39.2,37.4,93,30.18,0.8,Calm,Calm,-,N/A,,Overcast,0,2012-10-08 11:31:00
7:42 AM,39.2,37.4,93,30.19,1.0,Calm,Calm,-,N/A,,Overcast,0,2012-10-08 11:42:00
7:49 AM,39.2,37.4,93,30.19,2.0,Calm,Calm,-,N/A,,Overcast,0,2012-10-08 11:49:00
7:50 AM,39.9,39.0,97,30.21,2.5,Calm,Calm,-,N/A,,Overcast,0,2012-10-08 11:50:00
7:59 AM,39.2,39.2,100,30.20,5.0,Calm,Calm,-,N/A,,Overcast,0,2012-10-08 11:59:00
8:53 AM,43.0,41.0,93,30.24,10.0,South,3.5,-,N/A,,Overcast,170,2012-10-08 12:53:00
9:53 AM,46.9,43.0,86,30.24,10.0,Calm,Calm,-,N/A,,Scattered Clouds,0,2012-10-08 13:53:00
10:53 AM,51.1,39.0,63,30.26,10.0,Calm,Calm,-,N/A,,Mostly Cloudy,0,2012-10-08 14:53:00
11:53 AM,53.1,39.9,61,30.26,10.0,Calm,Calm,-,N/A,,Mostly Cloudy,0,2012-10-08 15:53:00
12:53 PM,54.0,39.0,57,30.25,10.0,North,4.6,-,N/A,,Mostly Cloudy,360,2012-10-08 16:53:00
1:53 PM,54.0,39.0,57,30.25,10.0,Calm,Calm,-,N/A,,Mostly Cloudy,0,2012-10-08 17:53:00
2:53 PM,55.0,39.0,55,30.26,10.0,Calm,Calm,-,N/A,,Mostly Cloudy,0,2012-10-08 18:53:00
3:53 PM,54.0,39.0,57,30.25,10.0,Variable,3.5,-,N/A,,Mostly Cloudy,0,2012-10-08 19:53:00
3:56 PM,53.6,39.2,58,30.24,10.0,Calm,Calm,-,N/A,,Mostly Cloudy,0,2012-10-08 19:56:00
4:53 PM,54.0,39.0,57,30.26,10.0,Calm,Calm,-,N/A,,Scattered Clouds,0,2012-10-08 20:53:00
5:53 PM,52.0,44.1,74,30.28,10.0,Calm,Calm,-,N/A,,Clear,0,2012-10-08 21:53:00
6:53 PM,48.9,44.1,83,30.30,10.0,Calm,Calm,-,N/A,,Clear,0,2012-10-08 22:53:00
7:53 PM,48.0,44.1,86,30.29,10.0,Calm,Calm,-,N/A,,Clear,0,2012-10-08 23:53:00
8:53 PM,46.0,43.0,89,30.29,10.0,Calm,Calm,-,N/A,,Clear,0,2012-10-09 00:53:00
9:53 PM,44.1,42.1,93,30.30,10.0,Calm,Calm,-,N/A,,Clear,0,2012-10-09 01:53:00
10:53 PM,43.0,39.9,89,30.30,10.0,North,5.8,-,N/A,,Clear,360,2012-10-09 02:53:00
11:53 PM,44.1,41.0,89,30.30,10.0,Calm,Calm,-,N/A,,Overcast,0,2012-10-09 03:53:00